COSMOS 2251 DEB

Satellite information

Favourite Embed

Satellite Type and Status

DEBRISIN ORBIT

Key statistics

Satellite COSMOS 2251 DEB at a glance.

Uptime

11869

Days in orbit

Revolutions

≈ 14.6

Per day

Orbit

LEO

Low Earth Orbit

Inclination

73.9

Latest

Satellite identification and parameters

Extended collection of information and parameters for COSMOS 2251 DEB.

Object identification

Identified? True

Debris? True

Object name: COSMOS 2251 DEB

International designator: 1993-036BVN

Object number (NORAD): 40233

Object ID (CCSDS): 40233

Country: COMMONWEALTH OF INDEPENDENT STATES (CIS)

Current information (Y/N): Y

RCS size: SMALL

Orbital parameters

Period: 98.737 minutes

Inclination: 73.9396 deg

SMA: 7076.42 km

Apoapsis: 730.295 km

Periapsis: 666.275 km

RAAN: 103.1069 deg

Eccentricy: 0.00452349

Argument of periapsis: 178.0114 deg

Mean anomaly: 182.1239 deg

Mean motion: 14.58419195 rev/day

Mean motion (dot): 0.00009688 rev/day2

B* drag term: 0.0020636602 1/REarth

Two-line elements (TLE)

Creation date: Dec. 13, 2025, 4:32 a.m.

Reference frame: TEME

Reference center: EARTH

Epoch: Dec. 12, 2025, 5:44 p.m. UTC

TLE line 0: 0 COSMOS 2251 DEB

TLE line 1: 1 40233U 93036BVN 25346.73931946 .00009688 00000-0 20637-2 0 9996

TLE line 2: 2 40233 73.9396 103.1069 0045235 178.0114 182.1239 14.58419195591370

Live tracking on map

Real-time ground track for satellite COSMOS 2251 DEB.

In-orbit conjunctions

A list of the most updated potential collisions computed for object COSMOS 2251 DEB.

Target Orbit TCA Probability of collision Miss distance Type
THOR ALTAIR DEB SSO 2024-11-16 01:07:34 0.0001625667 794.0 (m) DEBRIS
SL-8 R/B LEO 2024-06-09 06:51:35 0.0001040748 290.0 (m) ROCKET BODY

Associated space launch

Military communications satellite. Destroyed in a collision with Iridium 33.

COSMOS 2251 DEB was lifted into orbit during the mission ‘Kosmos-3M | Strela-2M 51’, on board a Kosmos-3M space rocket.

The launch took place on June 16, 1993, 4:17 a.m. from 132/1 (132L).

For more information about the launch, click the button.

Launch to space Kosmos-3M | Strela-2M 51
Kosmos-3M | Strela-2M 51

Agency: N/A

Status: Launch Successful

Launch date: June 16, 1993, 4:17 a.m. UTC

Rocket: Kosmos-3M

Launch pad: 132/1 (132L)

Location: Plesetsk Cosmodrome, Russian Federation

...

Latest news about this satellite

There are no fresh news available about this satellite. Check back as we update our databases every day.


Newsletter sign-up

Weekly statistics, charts and insights to help you stay on top of the space industry.